Change the Weather History Date:

Saturday, September 21, 2013

  Actual Average (KWRL) Record (KWRL)
Temperature  
Mean Temperature 60 °F 56 °F  
Max Temperature 68 °F 71 °F 90 °F (1966)
Min Temperature 51 °F 40 °F 24 °F (1983)
Degree Days  
Heating Degree Days 6 9  
Month to date heating degree days 117  
Since 1 July heating degree days 153  
Cooling Degree Days 0 0  
Month to date cooling degree days 28  
Year to date cooling degree days 534  
Growing Degree Days 10 (Base 50)    
Moisture  
Dew Point 26 °F    
Average Humidity 29    
Maximum Humidity 44    
Minimum Humidity 18    
Precipitation  
Precipitation 0.00 in 0.03 in 0.47 in (1963)
Month to date precipitation 0.55  
Year to date precipitation 6.00  
Sea Level Pressure  
Sea Level Pressure 30.06 in    
Wind  
Wind Speed 10 mph (SE)    
Max Wind Speed 20 mph    
Max Gust Speed 28 mph    
Visibility 10 miles    
Events      
T = Trace of Precipitation, MM = Missing Value Source: NWS Daily Summary

Daily Weather History Graph

Daily Weather History Graph

Search for Another Location

Airport or City:

Trip Planner

Search our weather history database for the weather conditions in past years. The results will help you decide how hot, cold, wet, or windy it might be!

Date:

Astronomy

Sep. 21, 2013 Rise Set
Actual Time 6:59 AM MDT 7:11 PM MDT
Civil Twilight 6:30 AM MDT 7:40 PM MDT
Nautical Twilight 5:57 AM MDT 8:13 PM MDT
Astronomical Twilight 5:22 AM MDT 8:47 PM MDT
Moon 8:18 PM MDT (9/21) 9:26 AM MDT (9/21)
Length of Visible Light 13h 09m
Length of Day
12h 12m
Waning Gibbous, 94% of the Moon is Illuminated
Sep 21
Waning Gibbous
Sep 26
Last Quarter
Oct 4
New
Oct 11
First Quarter
Oct 18
Full

Hourly Weather History & Observations

Time (MDT) Temp. Dew Point Humidity Pressure Visibility Wind Dir Wind Speed Gust Speed Precip Events Conditions
12:15 AM 53.6 °F 23.0 °F 30% 30.14 in 10.0 mi SE 6.9 mph - N/A   Clear
12:35 AM 53.6 °F 24.8 °F 33% 30.14 in 10.0 mi SSE 10.4 mph - N/A   Clear
12:55 AM 55.4 °F 24.8 °F 31% 30.14 in 10.0 mi SE 4.6 mph - N/A   Clear
1:15 AM 53.6 °F 26.6 °F 35% 30.13 in 10.0 mi SE 8.1 mph - N/A   Clear
1:35 AM 51.8 °F 30.2 °F 44% 30.13 in 10.0 mi SSE 9.2 mph - N/A   Clear
1:55 AM 53.6 °F 30.2 °F 41% 30.12 in 10.0 mi SSE 12.7 mph - N/A   Clear
2:15 AM 53.6 °F 30.2 °F 41% 30.12 in 10.0 mi SSE 9.2 mph - N/A   Clear
2:35 AM 53.6 °F 28.4 °F 38% 30.12 in 10.0 mi SSE 12.7 mph - N/A   Clear
2:55 AM 53.6 °F 28.4 °F 38% 30.12 in 10.0 mi SSE 12.7 mph - N/A   Clear
3:15 AM 51.8 °F 28.4 °F 41% 30.12 in 10.0 mi SSE 8.1 mph - N/A   Clear
3:35 AM 53.6 °F 28.4 °F 38% 30.12 in 10.0 mi SE 10.4 mph - N/A   Clear
3:55 AM 51.8 °F 30.2 °F 44% 30.11 in 10.0 mi SE 9.2 mph - N/A   Clear
4:15 AM 51.8 °F 30.2 °F 44% 30.12 in 10.0 mi SSE 9.2 mph - N/A   Clear
4:35 AM 51.8 °F 30.2 °F 44% 30.11 in 10.0 mi SSE 9.2 mph - N/A   Clear
4:55 AM 51.8 °F 30.2 °F 44% 30.12 in 10.0 mi SSE 8.1 mph - N/A   Clear
5:15 AM 53.6 °F 30.2 °F 41% 30.12 in 10.0 mi SSE 6.9 mph - N/A   Clear
5:35 AM 53.6 °F 30.2 °F 41% 30.12 in 10.0 mi SE 6.9 mph - N/A   Clear
5:55 AM 53.6 °F 28.4 °F 38% 30.12 in 10.0 mi SE 8.1 mph - N/A   Clear
6:15 AM 53.6 °F 28.4 °F 38% 30.12 in 10.0 mi SSE 8.1 mph - N/A   Clear
6:35 AM 55.4 °F 21.2 °F 26% 30.12 in 10.0 mi SSE 9.2 mph - N/A   Clear
6:55 AM 55.4 °F 19.4 °F 25% 30.12 in 10.0 mi SSE 9.2 mph - N/A   Clear
7:15 AM 53.6 °F 28.4 °F 38% 30.12 in 10.0 mi SE 9.2 mph - N/A   Clear
7:35 AM 53.6 °F 28.4 °F 38% 30.13 in 10.0 mi SE 8.1 mph - N/A   Clear
7:55 AM 53.6 °F 28.4 °F 38% 30.13 in 10.0 mi ESE 11.5 mph - N/A   Clear
8:15 AM 51.8 °F 30.2 °F 44% 30.13 in 10.0 mi SE 10.4 mph - N/A   Clear
8:35 AM 53.6 °F 30.2 °F 41% 30.13 in 10.0 mi ESE 10.4 mph - N/A   Clear
8:55 AM 53.6 °F 28.4 °F 38% 30.13 in 10.0 mi SE 10.4 mph - N/A   Clear
9:15 AM 55.4 °F 26.6 °F 33% 30.13 in 10.0 mi SE 12.7 mph - N/A   Clear
9:35 AM 53.6 °F 23.0 °F 30% 30.13 in 10.0 mi ESE 10.4 mph - N/A   Clear
9:55 AM 55.4 °F 23.0 °F 29% 30.13 in 10.0 mi SE 11.5 mph - N/A   Clear
10:15 AM 55.4 °F 23.0 °F 29% 30.13 in 10.0 mi SE 8.1 mph - N/A   Clear
10:35 AM 57.2 °F 24.8 °F 29% 30.12 in 10.0 mi ESE 11.5 mph - N/A   Clear
10:55 AM 59.0 °F 24.8 °F 27% 30.12 in 10.0 mi SE 11.5 mph - N/A   Clear
11:15 AM 59.0 °F 26.6 °F 29% 30.11 in 10.0 mi SE 11.5 mph - N/A   Clear
11:35 AM 59.0 °F 28.4 °F 31% 30.11 in 10.0 mi SE 10.4 mph - N/A   Clear
11:55 AM 59.0 °F 26.6 °F 29% 30.10 in 10.0 mi SE 13.8 mph - N/A   Clear
12:15 PM 60.8 °F 26.6 °F 27% 30.10 in 10.0 mi SE 13.8 mph - N/A   Clear
12:35 PM 60.8 °F 26.6 °F 27% 30.09 in 10.0 mi SE 15.0 mph - N/A   Clear
12:55 PM 60.8 °F 28.4 °F 29% 30.08 in 10.0 mi SE 16.1 mph - N/A   Clear
1:15 PM 62.6 °F 26.6 °F 26% 30.07 in 10.0 mi SE 16.1 mph 20.7 mph N/A   Clear
1:35 PM 62.6 °F 26.6 °F 26% 30.07 in 10.0 mi SE 13.8 mph 24.2 mph N/A   Clear
1:55 PM 64.4 °F 26.6 °F 24% 30.05 in 10.0 mi SE 16.1 mph 23.0 mph N/A   Clear
2:15 PM 64.4 °F 28.4 °F 26% 30.05 in 10.0 mi SSE 12.7 mph 20.7 mph N/A   Clear
2:35 PM 66.2 °F 26.6 °F 23% 30.03 in 10.0 mi SSE 13.8 mph 20.7 mph N/A   Clear
2:55 PM 66.2 °F 26.6 °F 23% 30.02 in 10.0 mi SE 15.0 mph 23.0 mph N/A   Clear
3:15 PM 68.0 °F 26.6 °F 21% 30.02 in 10.0 mi SSE 16.1 mph 23.0 mph N/A   Clear
3:35 PM 68.0 °F 23.0 °F 18% 30.01 in 10.0 mi SE 15.0 mph 26.5 mph N/A   Clear
3:55 PM 68.0 °F 23.0 °F 18% 30.00 in 10.0 mi SE 18.4 mph 27.6 mph N/A   Clear
4:15 PM 68.0 °F 23.0 °F 18% 30.00 in 10.0 mi SSE 16.1 mph 24.2 mph N/A   Clear
4:35 PM 68.0 °F 26.6 °F 21% 30.00 in 10.0 mi SE 15.0 mph 21.9 mph N/A   Clear
4:55 PM 68.0 °F 24.8 °F 20% 29.99 in 10.0 mi SE 19.6 mph 26.5 mph N/A   Clear
5:15 PM 68.0 °F 23.0 °F 18% 29.99 in 10.0 mi SE 10.4 mph 21.9 mph N/A   Clear
5:35 PM 68.0 °F 26.6 °F 21% 29.98 in 10.0 mi SSE 13.8 mph 20.7 mph N/A   Clear
5:55 PM 68.0 °F 23.0 °F 18% 29.98 in 10.0 mi SE 13.8 mph 24.2 mph N/A   Clear
6:15 PM 68.0 °F 23.0 °F 18% 29.97 in 10.0 mi SE 11.5 mph 21.9 mph N/A   Clear
6:35 PM 66.2 °F 23.0 °F 19% 29.97 in 10.0 mi SE 9.2 mph - N/A   Clear
6:55 PM 64.4 °F 21.2 °F 19% 29.96 in 10.0 mi SE 6.9 mph - N/A   Clear
7:15 PM 64.4 °F 23.0 °F 21% 29.96 in 10.0 mi SE 8.1 mph - N/A   Clear
7:35 PM 64.4 °F 21.2 °F 19% 29.95 in 10.0 mi SE 6.9 mph - N/A   Clear
7:55 PM 62.6 °F 21.2 °F 20% 29.95 in 10.0 mi SE 6.9 mph - N/A   Clear
8:15 PM 64.4 °F 19.4 °F 18% 29.96 in 10.0 mi SE 6.9 mph - N/A   Clear
8:35 PM 64.4 °F 19.4 °F 18% 29.96 in 10.0 mi ESE 9.2 mph - N/A   Clear
8:55 PM 62.6 °F 19.4 °F 19% 29.95 in 10.0 mi ESE 10.4 mph - N/A   Clear
9:15 PM 62.6 °F 19.4 °F 19% 29.95 in 10.0 mi ESE 8.1 mph - N/A   Clear
9:35 PM 62.6 °F 21.2 °F 20% 29.96 in 10.0 mi ESE 12.7 mph 21.9 mph N/A   Clear
9:55 PM 60.8 °F 23.0 °F 23% 29.95 in 10.0 mi SSE 12.7 mph 24.2 mph N/A   Clear
10:15 PM 60.8 °F 23.0 °F 23% 29.95 in 10.0 mi SSE 10.4 mph 18.4 mph N/A   Clear
10:35 PM 59.0 °F 23.0 °F 25% 29.95 in 10.0 mi SE 10.4 mph - N/A   Clear
10:55 PM 60.8 °F 23.0 °F 23% 29.94 in 10.0 mi South 13.8 mph 18.4 mph N/A   Clear
11:15 PM 59.0 °F 24.8 °F 27% 29.94 in 10.0 mi SE 8.1 mph - N/A   Clear
11:35 PM 60.8 °F 23.0 °F 23% 29.94 in 10.0 mi SE 9.2 mph 23.0 mph N/A   Clear
11:55 PM 59.0 °F 24.8 °F 27% 29.93 in 10.0 mi SE 9.2 mph - N/A   Clear